Location: Chippewa Lake
(41.0698°N, 81.9010°W)
Time: 02:18:49
(UTC+00:00)

MSX - Pass Details

Date: 09 May 2021
Orbit: 895 x 905 km, 98.8° (Epoch: 24 June)

Event Time Altitude Azimuth Distance (km) Brightness Sun altitude
Rises 08:51:54 0° 10° (N) 3,538 7.7 -14.2°
Reaches altitude 10° 08:54:20 10° 7° (N) 2,594 6.9 -13.9°
Maximum altitude 09:00:02 61° 288° (WNW) 1,019 4.0 -13.0°
Enters shadow 09:04:59 14° 211° (SSW) 2,316 5.4 -12.3°
